Regional Weather Roundup
Issued by NWS

Home | Current Version | Previous Version | Text Only | Print | Product List | Glossary On
Versions: 1 2 3 4 5 6 7 8 9 10 11 12 13 14 15 16 17 18 19 20 21 22 23 24 25 26 27 28 29 30 31 32 33 34 35 36 37 38 39 40 41 42 43 44 45 46 47 48 49 50
000
ASUS44 KMEG 231600
RWRTN
TENNESSEE HOURLY STATE WEATHER ROUNDUP
NATIONAL WEATHER SERVICE MEMPHIS TN
1100 AM CDT SAT AUG 23 2014

TNZ002-004-019-021-049-052-054-088>092-231700-
WEST TENNESSEE

CITY           SKY/WX    TMP DP  RH WIND       PRES   REMARKS
MEMPHIS INTL   SUNNY     92  73  53 NW7       30.03S HX 100
NWS MEMPHIS      N/A     91 N/A N/A MISG        N/A
JACKSON        SUNNY     88  76  67 VRB3      30.02F HX  99
DYERSBURG      SUNNY     90  72  55 W3        30.01S HX  96
UNION CITY     SUNNY     90  79  70 CALM      30.00R HX 105
PARIS          SUNNY     88  75  66 SW3       30.02S HX  97
LEXINGTON      SUNNY     91  75  59 VRB5      30.02S HX 102
SAVANNAH       SUNNY     88  79  74 NW8       30.04S HX 102
$$

TNZ008-025-027-028-033-062-065-066-231700-
NORTH MIDDLE TENNESSEE

CITY           SKY/WX    TMP DP  RH WIND       PRES   REMARKS
NASHVILLE      PTSUNNY   89  71  55 CALM      30.03F HX  95
CLARKSVILLE    PTSUNNY   84  77  79 SW5       30.01S HX  94
COOKEVILLE     SUNNY     84  75  74 CALM      30.05S HX  92
CROSSVILLE     MOSUNNY   80  73  79 W8        30.10F
$$

TNZ061-075-076-078-094-096-097-231700-
SOUTH MIDDLE TENNESSEE

CITY           SKY/WX    TMP DP  RH WIND       PRES   REMARKS
FAYETTEVILLE   PTSUNNY   84  73  70 NE6       30.06S HX  91
TULLAHOMA      SUNNY     84  72  65 NW7       30.07S
WINCHESTER     PTSUNNY   84  75  74 N3        30.06S HX  92
COLUMBIA       SUNNY     88  77  70 CALM      30.03F HX 100
SHELBYVILLE    MOSUNNY   88  75  66 CALM      30.05F HX  97
$$

TNZ017-018-042-046-047-231700-
NORTHEAST TENNESSEE

CITY           SKY/WX    TMP DP  RH WIND       PRES   REMARKS
TRI CITIES     CLOUDY    81  69  67 CALM      30.07R
ELIZABETHTON   PTSUNNY   79  72  78 NW5       30.07S
$$

TNZ012-013-036-069-073-074-231700-
CENTRAL EAST TENNESSEE

CITY           SKY/WX    TMP DP  RH WIND       PRES   REMARKS
KNOXVILLE      PTSUNNY   85  72  65 CALM      30.03S HX  91
OAK RIDGE      MOSUNNY   87  71  58 CALM      30.05R HX  93
GATLINBURG     MOSUNNY   86  70  58 NW6       30.03S HX  90
$$

TNZ083-085-099-231700-
SOUTHEAST TENNESSEE

CITY           SKY/WX    TMP DP  RH WIND       PRES   REMARKS
CHATTANOOGA    PTSUNNY   89  73  59 VRB3      30.03F HX  97
$$

SKY/WX REPORTED AS FAIR MEANS FEW OR NO CLOUDS BELOW
12 THOUSAND FEET.



USA.gov is the U.S. government's official web portal to all federal, state and local government web resources and services.